GW4171 Weather Reports


time (UTC)temp
C
wind
direction
speed
KPH
gust
KPH
rain 1hr
cm
rain 24hr
cm
rain mn
cm
humidity
%
barometer
mb
20260505171753 25 252 1.6 16.1 0.00 0.00 0.00 47 1009.4
20260505171250 25 242 4.8 9.7 0.00 0.00 0.00 48 1009.1
20260505170746 25 141 6.4 11.3 0.00 0.00 0.00 47 1009.3
20260505170244 25 193 4.8 19.3 0.00 0.00 0.00 47 1009.1
20260505165743 26 177 3.2 9.7 0.00 0.00 0.00 44 1009.3
20260505165240 26 209 9.7 17.7 0.00 0.00 0.00 42 1009.3
20260505164735 26 100 1.6 9.7 0.00 0.00 0.00 42 1009.2
20260505164233 26 152 1.6 9.7 0.00 0.00 0.00 42 1009.5
20260505163731 25 215 3.2 20.9 0.00 0.00 0.00 43 1009.5
20260505163229 25 102 3.2 12.9 0.00 0.00 0.00 44 1009.4
20260505162726 25 169 12.9 17.7 0.00 0.00 0.00 46 1009.6
20260505162223 25 225 4.8 11.3 0.00 0.00 0.00 45 1009.7
20260505161720 25 207 6.4 17.7 0.00 0.00 0.00 45 1009.8
20260505161218 25 151 3.2 9.7 0.00 0.00 0.00 47 1009.7
20260505160715 25 85 3.2 11.3 0.00 0.00 0.00 48 1009.9
20260505160212 25 96 4.8 6.4 0.00 0.00 0.00 48 1010.0
20260505153152 23 244 6.4 16.1 0.00 0.00 0.00 47 1010.0
20260505152648 23 248 0.0 9.7 0.00 0.00 0.00 47 1010.2
20260505152144 23 284 8.0 12.9 0.00 0.00 0.00 48 1010.2
20260505151639 23 232 9.7 14.5 0.00 0.00 0.00 48 1010.3
20260505151137 22 239 3.2 17.7 0.00 0.00 0.00 49 1010.4
20260505150633 23 226 3.2 8.0 0.00 0.00 0.00 49 1010.4
20260505150130 22 242 0.0 12.9 0.00 0.00 0.00 50 1010.6
20260505140559 21 267 8.0 14.5 0.00 0.00 0.00 55 1010.6
20260505125012 20 210 6.4 8.0 0.00 0.00 0.00 57 1010.4
20260505124509 20 242 6.4 8.0 0.00 0.00 0.00 57 1010.3
20260505124005 19 18 1.6 11.3 0.00 0.00 0.00 59 1010.2
20260505123502 19 242 6.4 11.3 0.00 0.00 0.00 59 1010.3
20260505122958 19 230 6.4 8.0 0.00 0.00 0.00 59 1010.3
20260505122455 19 219 6.4 9.7 0.00 0.00 0.00 59 1010.2
20260505121952 19 208 4.8 8.0 0.00 0.00 0.00 60 1010.1
20260505121449 18 233 3.2 16.1 0.00 0.00 0.00 60 1010.3
20260505120944 18 221 8.0 14.5 0.00 0.00 0.00 61 1010.4
20260505120441 18 256 3.2 9.7 0.00 0.00 0.00 61 1010.3
20260505115940 18 238 4.8 9.7 0.00 0.00 0.00 61 1010.1
20260505115437 18 268 3.2 8.0 0.00 0.00 0.00 62 1010.2
20260505114935 18 241 4.8 8.0 0.00 0.00 0.00 63 1010.0
20260505114431 18 195 1.6 8.0 0.00 0.00 0.00 63 1010.1
20260505113927 18 218 4.8 4.8 0.00 0.00 0.00 62 1010.3
20260505113424 17 247 4.8 4.8 0.00 0.00 0.00 63 1010.6
20260505112920 17 247 3.2 9.7 0.00 0.00 0.00 64 1010.4
20260505112418 17 240 6.4 9.7 0.00 0.00 0.00 64 1010.3
20260505111914 17 289 8.0 14.5 0.00 0.00 0.00 65 1010.3
20260505111414 16 247 9.7 16.1 0.00 0.00 0.00 66 1010.4
20260505110911 16 245 11.3 11.3 0.00 0.00 0.00 67 1010.4
20260505110408 16 255 6.4 16.1 0.00 0.00 0.00 67 1010.2
20260505101838 16 249 8.0 9.7 0.00 0.00 0.00 69 1010.1
20260505101334 16 286 4.8 9.7 0.00 0.00 0.00 69 1010.2
20260505100830 16 250 6.4 9.7 0.00 0.00 0.00 70 1010.1
20260505100327 15 249 9.7 9.7 0.00 0.00 0.00 71 1009.9
20260505095822 16 236 0.0 17.7 0.00 0.00 0.00 70 1009.7
20260505095320 16 274 9.7 17.7 0.00 0.00 0.00 70 1009.6
20260505094816 16 240 4.8 8.0 0.00 0.00 0.00 70 1009.5
20260505094313 16 245 6.4 16.1 0.00 0.00 0.00 70 1009.5
20260505093808 16 237 6.4 9.7 0.00 0.00 0.00 70 1009.3
20260505093306 16 249 14.5 14.5 0.00 0.00 0.00 69 1009.3
20260505092803 16 280 3.2 11.3 0.00 0.00 0.00 70 1009.5
20260505092304 15 242 8.0 14.5 0.00 0.00 0.00 70 1009.6
20260505091758 15 235 3.2 8.0 0.00 0.00 0.00 70 1009.6
20260505091256 15 248 4.8 17.7 0.00 0.00 0.00 71 1009.7
20260505090754 15 268 3.2 6.4 0.00 0.00 0.00 72 1009.4
20260505090252 15 277 3.2 8.0 0.00 0.00 0.00 72 1009.7
20260505085749 15 229 3.2 11.3 0.00 0.00 0.00 73 1009.5
20260505085247 15 225 4.8 8.0 0.00 0.00 0.00 74 1009.6
20260505084744 14 237 3.2 6.4 0.00 0.00 0.00 74 1009.5
20260505084243 14 218 3.2 8.0 0.00 0.00 0.00 75 1009.5
20260505083739 14 193 6.4 8.0 0.00 0.00 0.00 75 1009.4
20260505083236 14 282 1.6 6.4 0.00 0.00 0.00 76 1009.6
20260505082732 13 236 3.2 6.4 0.00 0.00 0.00 77 1009.5
20260505082230 13 204 3.2 4.8 0.00 0.00 0.00 78 1009.5
20260505081725 13 257 1.6 4.8 0.00 0.00 0.00 78 1009.5
20260505081223 13 232 3.2 4.8 0.00 0.00 0.00 78 1009.6
20260505080720 13 134 1.6 8.0 0.00 0.00 0.00 79 1009.5
20260505080215 13 133 3.2 6.4 0.00 0.00 0.00 79 1009.6
20260505075711 13 225 6.4 6.4 0.00 0.00 0.00 79 1009.4
20260505075209 13 219 4.8 6.4 0.00 0.00 0.00 79 1009.5
20260505074706 13 282 1.6 6.4 0.00 0.00 0.00 79 1009.6
20260505074203 13 223 3.2 6.4 0.00 0.00 0.00 79 1009.5
20260505073700 13 238 3.2 6.4 0.00 0.00 0.00 80 1009.7
20260505073158 13 243 4.8 6.4 0.00 0.00 0.00 81 1009.6
20260505072654 13 269 3.2 6.4 0.00 0.00 0.00 81 1009.5
20260505072151 13 244 3.2 6.4 0.00 0.00 0.00 81 1009.4
20260505071646 13 22 0.0 4.8 0.00 0.00 0.00 81 1009.5
20260505071144 13 252 3.2 4.8 0.00 0.00 0.00 80 1009.4
20260505070641 13 185 4.8 6.4 0.00 0.00 0.00 79 1009.6
20260505070137 13 225 3.2 8.0 0.00 0.00 0.00 79 1009.5
20260505065633 13 260 4.8 9.7 0.00 0.00 0.00 78 1009.6
20260505065130 13 321 1.6 6.4 0.00 0.00 0.00 77 1009.3
20260505064627 13 261 4.8 9.7 0.00 0.00 0.00 77 1009.6
20260505064125 14 163 3.2 8.0 0.00 0.00 0.00 76 1009.3
20260505063622 14 169 4.8 9.7 0.00 0.00 0.00 74 1009.7
20260505063118 14 114 1.6 9.7 0.00 0.00 0.00 73 1009.6
20260505062615 15 144 3.2 8.0 0.00 0.00 0.00 71 1009.5
20260505062112 15 199 0.0 6.4 0.00 0.00 0.00 70 1009.7
20260505061609 15 161 3.2 6.4 0.00 0.00 0.00 70 1009.6
20260505061107 15 224 3.2 4.8 0.00 0.00 0.00 68 1009.6
20260505060605 15 144 1.6 8.0 0.00 0.00 0.00 67 1009.5
20260505055556 16 179 3.2 4.8 0.00 0.00 0.00 64 1009.7
20260505055053 16 246 0.0 6.4 0.00 0.00 0.00 63 1009.7
20260505054550 16 223 4.8 6.4 0.00 0.00 0.00 62 1009.9
20260505054049 16 211 8.0 9.7 0.00 0.00 0.00 62 1009.6
20260505053545 16 203 4.8 12.9 0.00 0.00 0.00 61 1009.7
20260505053042 16 247 6.4 8.0 0.00 0.00 0.00 61 1009.9
20260505052539 16 240 6.4 9.7 0.00 0.00 0.00 61 1009.8
20260505052037 16 206 4.8 6.4 0.00 0.00 0.00 61 1010.1
20260505051533 16 160 3.2 8.0 0.00 0.00 0.00 60 1010.1
20260505051031 16 248 4.8 9.7 0.00 0.00 0.00 60 1009.9
20260505050529 16 235 9.7 9.7 0.00 0.00 0.00 59 1010.2
20260505041457 17 256 4.8 8.0 0.00 0.00 0.00 56 1010.4
20260505040954 17 245 6.4 9.7 0.00 0.00 0.00 55 1010.4
20260505040452 17 243 3.2 6.4 0.00 0.00 0.00 55 1010.3
20260505035948 17 245 1.6 9.7 0.00 0.00 0.00 55 1010.4
20260505035444 17 160 4.8 9.7 0.00 0.00 0.00 54 1010.2
20260505034942 17 298 3.2 12.9 0.00 0.00 0.00 54 1010.3
20260505034438 17 254 6.4 17.7 0.00 0.00 0.00 54 1010.5
20260505033935 17 250 6.4 20.9 0.00 0.00 0.00 53 1010.4
20260505033432 17 258 6.4 8.0 0.00 0.00 0.00 52 1010.5
20260505032930 17 166 6.4 20.9 0.00 0.00 0.00 52 1010.4
20260505032427 17 269 1.6 12.9 0.00 0.00 0.00 51 1010.2
20260505031923 17 241 4.8 16.1 0.00 0.00 0.00 51 1010.3
20260505031420 17 222 8.0 11.3 0.00 0.00 0.00 50 1010.2
20260505030917 18 103 4.8 16.1 0.00 0.00 0.00 50 1010.7
20260505030413 18 241 8.0 11.3 0.00 0.00 0.00 49 1010.6
20260505025909 18 219 0.0 9.7 0.00 0.00 0.00 49 1010.7
20260505025406 18 187 1.6 9.7 0.00 0.00 0.00 49 1010.5
20260505024905 18 239 1.6 12.9 0.00 0.00 0.00 48 1010.5
20260505024402 18 252 4.8 11.3 0.00 0.00 0.00 49 1010.7
20260505023859 18 257 4.8 11.3 0.00 0.00 0.00 49 1010.5
20260505023356 18 206 3.2 11.3 0.00 0.00 0.00 49 1010.6
20260505022853 18 240 3.2 16.1 0.00 0.00 0.00 48 1010.6
20260505022350 18 262 3.2 8.0 0.00 0.00 0.00 48 1010.8
20260505021848 18 249 6.4 8.0 0.00 0.00 0.00 48 1010.7
20260505021344 18 240 8.0 11.3 0.00 0.00 0.00 48 1010.8
20260505020840 18 269 0.0 6.4 0.00 0.00 0.00 48 1010.5
20260505020335 18 255 4.8 9.7 0.00 0.00 0.00 47 1010.6
20260505015832 18 224 4.8 9.7 0.00 0.00 0.00 47 1010.7
20260505015330 18 216 6.4 11.3 0.00 0.00 0.00 47 1010.6
20260505014827 18 248 4.8 9.7 0.00 0.00 0.00 47 1010.5
20260505014324 18 213 0.0 9.7 0.00 0.00 0.00 47 1010.6
20260505013820 18 241 6.4 11.3 0.00 0.00 0.00 47 1010.7
20260505013318 18 265 6.4 12.9 0.00 0.00 0.00 47 1010.8
20260505012816 18 221 8.0 11.3 0.00 0.00 0.00 47 1010.6
20260505012313 18 203 3.2 9.7 0.00 0.00 0.00 47 1010.3
20260505011809 18 136 3.2 4.8 0.00 0.00 0.00 47 1010.4
20260505011306 19 250 3.2 12.9 0.00 0.00 0.00 47 1010.1
20260505010802 19 246 8.0 9.7 0.00 0.00 0.00 47 1010.2
20260505010258 19 257 9.7 14.5 0.00 0.00 0.00 48 1010.1
20260505005754 18 231 4.8 11.3 0.00 0.00 0.00 48 1010.1
20260505005252 18 185 9.7 11.3 0.00 0.00 0.00 50 1010.0
20260505004749 18 234 6.4 12.9 0.00 0.00 0.00 51 1009.8
20260505004245 18 246 3.2 12.9 0.00 0.00 0.00 51 1009.9
20260505003742 18 245 6.4 12.9 0.00 0.00 0.00 52 1009.9
20260505003240 18 230 8.0 17.7 0.00 0.00 0.00 52 1009.9
20260505002736 18 189 4.8 14.5 0.00 0.00 0.00 52 1009.8
20260505002234 18 227 3.2 8.0 0.00 0.00 0.00 53 1009.8
20260505001731 18 261 3.2 14.5 0.00 0.00 0.00 53 1009.6
20260505001228 18 241 4.8 11.3 0.00 0.00 0.00 53 1009.6
20260505000725 18 220 6.4 12.9 0.00 0.00 0.00 53 1009.3
20260505000223 18 222 6.4 8.0 0.00 0.00 0.00 54 1009.4
20260504235719 18 248 6.4 6.4 0.00 0.00 0.00 54 1009.1
20260504235215 18 264 1.6 9.7 0.00 0.00 0.00 54 1009.2
20260504234713 18 218 4.8 9.7 0.00 0.00 0.00 54 1009.2
20260504234210 18 115 4.8 9.7 0.00 0.00 0.00 53 1009.3
20260504233706 18 277 3.2 12.9 0.00 0.00 0.00 53 1009.1
20260504233202 18 206 1.6 9.7 0.00 0.00 0.00 53 1008.9
20260504232700 19 226 6.4 9.7 0.00 0.00 0.00 52 1008.8
20260504232156 19 254 4.8 4.8 0.00 0.00 0.00 52 1008.8
20260504231653 19 195 4.8 8.0 0.00 0.00 0.00 53 1009.0
20260504231149 18 167 9.7 9.7 0.00 0.00 0.00 53 1008.8
20260504230646 19 92 3.2 9.7 0.00 0.00 0.00 52 1008.7
20260504230145 19 106 6.4 11.3 0.00 0.00 0.00 52 1008.8
20260504225643 19 142 3.2 9.7 0.00 0.00 0.00 51 1008.7
20260504225138 19 223 0.0 6.4 0.00 0.00 0.00 51 1008.8
20260504224635 19 92 4.8 9.7 0.00 0.00 0.00 52 1008.8
20260504224132 19 248 0.0 14.5 0.00 0.00 0.00 52 1008.8
20260504223629 19 92 8.0 14.5 0.00 0.00 0.00 52 1008.7
20260504223125 20 152 3.2 8.0 0.00 0.00 0.00 50 1009.0
20260504222622 20 161 3.2 9.7 0.00 0.00 0.00 49 1009.0
20260504222119 20 153 4.8 14.5 0.00 0.00 0.00 50 1009.0
20260504221616 20 110 4.8 6.4 0.00 0.00 0.00 47 1009.0
20260504221114 20 208 3.2 11.3 0.00 0.00 0.00 47 1009.1
20260504220610 20 109 4.8 9.7 0.00 0.00 0.00 46 1009.2
20260504220108 21 86 0.0 9.7 0.00 0.00 0.00 46 1009.1
20260504215603 21 165 4.8 8.0 0.00 0.00 0.00 44 1008.8
20260504215101 21 353 3.2 9.7 0.00 0.00 0.00 46 1009.1
20260504214557 20 150 4.8 20.9 0.00 0.00 0.00 47 1009.2
20260504214053 21 188 4.8 17.7 0.00 0.00 0.00 45 1009.0
20260504213550 20 115 14.5 14.5 0.00 0.00 0.00 46 1009.1
20260504213047 21 253 3.2 9.7 0.00 0.00 0.00 45 1009.1
20260504212543 21 115 9.7 14.5 0.00 0.00 0.00 44 1009.1
20260504212040 21 311 3.2 22.5 0.00 0.00 0.00 44 1009.1
20260504211537 21 310 3.2 11.3 0.00 0.00 0.00 42 1009.1
20260504211034 21 266 4.8 16.1 0.00 0.00 0.00 42 1009.3
20260504210531 21 139 9.7 9.7 0.00 0.00 0.00 40 1009.0
20260504210028 21 148 3.2 9.7 0.00 0.00 0.00 43 1009.0
20260504205526 22 273 3.2 14.5 0.00 0.00 0.00 41 1009.1
20260504205023 23 158 6.4 16.1 0.00 0.00 0.00 38 1009.1
20260504204521 23 226 9.7 16.1 0.00 0.00 0.00 31 1009.1
20260504204020 23 215 6.4 8.0 0.00 0.00 0.00 31 1008.8
20260504203517 23 239 1.6 16.1 0.00 0.00 0.00 32 1009.2
20260504203015 23 226 3.2 17.7 0.00 0.00 0.00 32 1009.2
20260504202510 23 140 3.2 16.1 0.00 0.00 0.00 31 1009.1
20260504202007 23 233 8.0 17.7 0.00 0.00 0.00 31 1009.1
20260504201504 23 229 4.8 8.0 0.00 0.00 0.00 30 1009.4
20260504201002 23 103 3.2 14.5 0.00 0.00 0.00 31 1009.2
20260504200458 22 224 6.4 24.1 0.00 0.00 0.00 31 1009.2
20260504195955 23 193 6.4 16.1 0.00 0.00 0.00 31 1009.3
20260504195451 22 228 11.3 16.1 0.00 0.00 0.00 31 1009.3
20260504194948 22 217 9.7 11.3 0.00 0.00 0.00 31 1009.3
20260504194444 22 232 16.1 25.7 0.00 0.00 0.00 31 1009.4
20260504193940 22 236 4.8 17.7 0.00 0.00 0.00 30 1009.3
20260504193437 22 247 9.7 14.5 0.00 0.00 0.00 30 1009.2
20260504192936 22 286 20.9 22.5 0.00 0.00 0.00 31 1009.5
20260504192433 22 246 17.7 22.5 0.00 0.00 0.00 31 1009.5
20260504191932 22 230 8.0 29.0 0.00 0.00 0.00 31 1009.7
20260504191430 22 248 17.7 20.9 0.00 0.00 0.00 30 1009.5
20260504190930 22 295 8.0 20.9 0.00 0.00 0.00 31 1009.7
20260504190425 22 227 9.7 20.9 0.00 0.00 0.00 32 1009.7
20260504185922 22 290 14.5 24.1 0.00 0.00 0.00 31 1009.7
20260504185420 22 301 4.8 20.9 0.00 0.00 0.00 31 1009.8
20260504184915 22 205 9.7 14.5 0.00 0.00 0.00 32 1009.9
20260504184411 22 229 17.7 17.7 0.00 0.00 0.00 32 1009.9
20260504183907 21 210 6.4 16.1 0.00 0.00 0.00 32 1010.1
20260504183405 21 261 16.1 27.4 0.00 0.00 0.00 32 1010.3
20260504182903 21 232 6.4 24.1 0.00 0.00 0.00 32 1010.0
20260504182359 21 198 8.0 17.7 0.00 0.00 0.00 32 1010.0
20260504181856 21 253 1.6 17.7 0.00 0.00 0.00 34 1010.2
20260504181354 21 150 1.6 17.7 0.00 0.00 0.00 33 1010.2
20260504180852 21 53 4.8 17.7 0.00 0.00 0.00 33 1010.6
20260504180350 21 224 6.4 14.5 0.00 0.00 0.00 33 1010.7
20260504175848 21 294 6.4 17.7 0.00 0.00 0.00 33 1010.7
20260504175345 20 259 8.0 17.7 0.00 0.00 0.00 34 1010.8
20260504174843 20 258 6.4 24.1 0.00 0.00 0.00 34 1010.7
20260504174340 20 260 12.9 25.7 0.00 0.00 0.00 34 1010.9
20260504173837 21 206 9.7 20.9 0.00 0.00 0.00 34 1010.6
20260504173334 21 184 9.7 17.7 0.00 0.00 0.00 34 1010.5
20260504172831 20 239 9.7 16.1 0.00 0.00 0.00 35 1010.7
20260504172328 21 126 1.6 16.1 0.00 0.00 0.00 34 1010.6